Weather History for Jacksonville, FL

Change the Weather History Date:

Monday, July 2, 2012

  Actual Average Record
Temperature  
Mean Temperature 83 °F 82 °F  
Max Temperature 93 °F 91 °F 100 °F (1902)
Min Temperature 72 °F 72 °F 65 °F (2000)
Degree Days  
Heating Degree Days 0 0  
Month to date heating degree days 0 0  
Since 1 June heating degree days 0 0  
Since 1 July heating degree days 0 0  
Cooling Degree Days 18 17  
Month to date cooling degree days 38 34  
Year to date cooling degree days 1096 967  
Since 1 June cooling degree days 432 483  
Growing Degree Days 32 (Base 50)    
Moisture  
Dew Point 72 °F    
Average Humidity 75    
Maximum Humidity 93    
Minimum Humidity 56    
Precipitation  
Precipitation 0.00 in 0.21 in 2.30 in (1990)
Month to date precipitation T 0.42  
Year to date precipitation 31.50 22.43  
Snow  
Snow 0.00 in 0.00 in 0.00 in (2002)
Month to date snowfall 0.0 0.0  
Since 1 June snowfall 0.0 0.0  
Since 1 July snowfall 0.0 0.0  
Snow Depth 0.00 in    
Sea Level Pressure  
Sea Level Pressure 30.05 in    
Wind  
Wind Speed 4 mph (ENE)    
Max Wind Speed 14 mph    
Max Gust Speed 18 mph    
Visibility 9 miles    
Events Rain , Thunderstorm    
T = Trace of Precipitation, MM = Missing Value Source: NWS Daily Summary

Daily Weather History Graph

Daily Weather History Graph

Search for Another Location

Airport:

Trip Planner

Search our weather history database for the weather conditions in past years. The results will help you decide how hot, cold, wet, or windy it might be!

Date:

Astronomy

Jul. 02, 2012 Rise Set
Actual Time 6:28 AM EDT 8:33 PM EDT
Civil Twilight 6:01 AM EDT 9:00 PM EDT
Nautical Twilight 5:27 AM EDT 9:33 PM EDT
Astronomical Twilight 4:51 AM EDT 10:09 PM EDT
Moon 7:36 PM EDT 5:12 AM EDT
Length of Visible Light 14h 59m
Length of Day
14h 04m
Waxing Gibbous, 98% of the Moon is Illuminated
Jul 2
Waxing Gibbous
Jul 3
Full
Jul 10
Last Quarter
Jul 19
New
Jul 26
First Quarter

Hourly Weather History & Observations

Time (EDT) Temp. Heat Index Dew Point Humidity Pressure Visibility Wind Dir Wind Speed Gust Speed Precip Events Conditions
12:03 AM 78.8 °F - 69.8 °F 74% 30.11 in 10.0 mi NNE 24.2 mph 47.2 mph N/A Thunderstorm Thunderstorm
12:10 AM 78.8 °F - 69.8 °F 74% 30.12 in 10.0 mi NE 24.2 mph 35.7 mph N/A Thunderstorm Thunderstorm
12:18 AM 75.2 °F - 69.8 °F 83% 30.13 in 10.0 mi NE 20.7 mph 29.9 mph 0.00 in Rain , Thunderstorm Light Thunderstorms and Rain
12:56 AM 75.0 °F - 70.0 °F 84% 30.08 in 9.0 mi NE 11.5 mph - 0.00 in Thunderstorm Thunderstorm
1:11 AM 75.2 °F - 69.8 °F 83% 30.08 in 8.0 mi NE 6.9 mph - N/A   Overcast
1:56 AM 73.9 °F - 71.1 °F 91% 30.06 in 8.0 mi West 5.8 mph - N/A   Overcast
2:56 AM 73.0 °F - 71.1 °F 93% 30.04 in 9.0 mi Calm Calm - N/A   Overcast
3:56 AM 73.0 °F - 71.1 °F 93% 30.03 in 8.0 mi WSW 3.5 mph - N/A   Mostly Cloudy
4:56 AM 73.0 °F - 71.1 °F 93% 30.03 in 9.0 mi West 3.5 mph - N/A   Mostly Cloudy
5:56 AM 73.0 °F - 71.1 °F 93% 30.05 in 9.0 mi NNW 4.6 mph - N/A   Mostly Cloudy
6:43 AM 71.6 °F - 69.8 °F 94% 30.06 in 7.0 mi Calm Calm - N/A   Mostly Cloudy
6:56 AM 73.0 °F - 70.0 °F 90% 30.06 in 7.0 mi Calm Calm - N/A   Overcast
7:56 AM 73.0 °F - 71.1 °F 93% 30.07 in 7.0 mi Calm Calm - N/A   Overcast
8:56 AM 77.0 °F - 71.1 °F 82% 30.08 in 9.0 mi North 4.6 mph - N/A   Mostly Cloudy
9:56 AM 82.9 °F 87.5 °F 71.1 °F 67% 30.07 in 10.0 mi Calm Calm - N/A   Scattered Clouds
10:56 AM 84.9 °F 91.4 °F 73.0 °F 67% 30.08 in 8.0 mi SSE 3.5 mph - N/A   Mostly Cloudy
11:56 AM 87.1 °F 95.4 °F 73.9 °F 65% 30.07 in 9.0 mi South 5.8 mph - N/A   Mostly Cloudy
12:56 PM 88.0 °F 95.6 °F 73.0 °F 61% 30.05 in 9.0 mi Calm Calm - N/A   Mostly Cloudy
1:56 PM 91.0 °F 99.3 °F 73.0 °F 55% 30.04 in 9.0 mi Calm Calm - N/A   Mostly Cloudy
2:56 PM 91.9 °F 100.7 °F 73.0 °F 54% 30.02 in 9.0 mi Calm Calm - N/A   Mostly Cloudy
3:56 PM 90.0 °F 97.9 °F 73.0 °F 57% 30.01 in 10.0 mi ENE 6.9 mph - N/A   Scattered Clouds
4:56 PM 89.1 °F 97.0 °F 73.0 °F 59% 30.02 in 10.0 mi East 10.4 mph - N/A   Mostly Cloudy
5:56 PM 88.0 °F 95.6 °F 73.0 °F 61% 30.00 in 10.0 mi East 9.2 mph - N/A   Mostly Cloudy
6:56 PM 86.0 °F 93.8 °F 73.9 °F 67% 29.99 in 10.0 mi East 9.2 mph - N/A   Mostly Cloudy
7:56 PM 84.0 °F 90.2 °F 73.0 °F 69% 30.02 in 10.0 mi ESE 6.9 mph - N/A   Mostly Cloudy
8:56 PM 82.0 °F 87.4 °F 73.0 °F 74% 30.04 in 10.0 mi South 6.9 mph - N/A   Mostly Cloudy
9:56 PM 80.1 °F 83.8 °F 72.0 °F 76% 30.03 in 10.0 mi SW 4.6 mph - N/A   Mostly Cloudy
10:56 PM 79.0 °F - 71.1 °F 77% 30.04 in 10.0 mi Calm Calm - N/A   Mostly Cloudy
11:56 PM 75.9 °F - 72.0 °F 87% 30.04 in 10.0 mi Calm Calm - N/A   Mostly Cloudy